RH
43 52 56 52 52 59 61 58 62 32 42 29 49 52 51 56 60 61 62 62 62 61 63 64 69 55 42 39 44 41 52 58 58 57 57 58 58 60 61 62 62 62 62 62
38 32 42 36 36 38 45 52 48 37 35 46 50 50 54 58 55 53 59 65 68 66 66 71 71 61 49 42 41 42 52 63 66 66 66 66 66 67 66 65 64 64 62 62
56 42 50 32 13 23 28 32 35 38 31 44 46 53 52 54 54 57 62 68 69 72 74 78 73 62 54 47 48 55 62 69 70 71 71 70 68 65 61 57 56 57 59 57
67 59 73 16 22 31 31 19 31 33 39 46 57 52 50 56 58 62 72 75 78 80 78 72 72 64 53 49 48 57 67 74 77 78 75 70 64 58 52 47 43 37 31 26
72 82 42 17 16 21 24 26 33 38 44 56 55 50 53 58 60 67 70 74 79 75 74 74 72 66 63 60 55 63 73 81 83 80 70 59 55 51 50 48 38 30 28 27
90 90 83 22 21 26 41 44 41 51 54 55 52 61 62 58 66 67 72 76 82 87 86 80 81 78 73 70 67 79 89 88 85 85 80 68 59 56 55 54 50 46 41 34
96 96 63 20 30 42 59 45 52 54 58 63 68 78 79 81 83 80 73 76 79 79 80 86 88 83 81 84 86 85 90 94 93 92 87 81 74 65 62 59 40 25 18 12
98 100 78 31 38 44 44 51 56 60 67 80 89 89 86 89 85 77 66 62 64 61 70 80 88 86 82 89 95 95 96 96 96 95 94 88 81 78 64 34 14 14 16 18
41 30 30 33 38 47 56 65 70 77 86 89 90 90 84 78 69 62 60 61 65 78 92 95 94 84 81 90 96 97 97 96 94 92 93 93 92 55 20 15 16 19 22 24
46 33 37 45 54 59 73 84 89 91 92 90 87 82 74 72 64 55 58 67 87 86 95 94 94 93 98 100 97 95 92 95 100 97 96 91 47 21 18 26 27 26 28 38
33 30 43 56 64 75 84 87 91 93 99 100 97 82 71 59 55 63 70 78 79 71 82 92 91 95 98 98 93 84 80 81 81 87 90 92 84 48 30 32 33 34 48 58
35 48 62 69 86 84 82 87 98 100 97 97 91 68 57 55 58 66 75 72 74 84 86 83 84 80 71 62 50 39 34 36 42 46 52 59 65 65 68 72 66 73 71 50
55 86 94 89 100 100 100 100 94 86 90 80 63 57 62 66 86 86 77 75 76 70 66 57 42 30 23 25 25 26 28 32 40 46 57 66 64 70 66 66 68 62 56 45
98 94 97 96 100 100 100 98 85 83 67 48 47 69 81 83 84 78 71 68 65 61 60 50 42 33 17 16 15 16 19 20 24 23 32 44 48 46 48 48 44 46 42 38
95 96 96 96 95 98 96 85 78 63 73 83 88 89 97 89 79 74 70 49 37 34 33 27 25 22 15 12 11 11 11 11 12 13 15 16 17 17 18 22 28 35 37 44
96 97 98 97 96 96 97 97 97 96 92 85 72 78 76 73 72 64 54 31 33 31 29 25 20 17 14 12 12 12 12 14 18 21 22 22 26 27 28 34 41 56 60 56
96 95 94 96 99 100 94 73 60 55 53 44 37 30 26 25 26 25 24 24 24 23 22 21 19 18 16 16 15 15 18 21 27 34 39 41 46 49 55 62 66 68 63 55
96 96 96 94 85 70 65 58 41 31 27 25 24 22 21 24 26 28 29 31 29 28 26 23 25 26 22 18 19 25 28 31 36 42 46 48 50 54 58 62 62 59 57 55
95 94 88 85 61 50 37 29 22 21 21 20 18 18 20 22 23 26 33 38 38 36 30 33 33 33 28 22 26 24 30 35 41 48 51 51 50 52 53 55 58 58 53 46
69 49 35 33 28 23 22 21 22 22 20 19 19 19 19 20 24 30 34 35 35 39 41 39 42 42 36 30 35 32 34 41 48 57 60 60 59 60 60 58 57 54 49 42
45 31 27 26 24 22 24 27 27 25 22 20 18 20 25 26 26 31 38 44 34 42 42 41 56 54 43 39 41 37 37 44 56 66 64 62 60 60 61 60 56 53 48 42
29 27 25 25 26 26 24 24 23 26 24 21 24 32 38 36 40 44 44 48 48 45 43 40 46 56 52 45 38 36 36 34 41 49 52 50 43 42 48 57 57 54 47 47
29 28 27 28 28 24 22 25 30 29 28 36 39 41 42 41 40 43 43 41 44 38 39 42 52 63 63 55 47 47 46 45 41 32 29 31 37 37 40 44 46 47 59 77
34 32 30 27 25 25 34 32 31 31 34 34 31 26 28 31 28 28 33 35 41 44 42 41 51 67 73 66 63 53 43 42 40 33 30 31 34 40 47 49 55 78 83 96
28 26 26 28 33 38 38 35 34 31 31 26 21 24 31 32 43 39 37 37 40 43 63 72 67 60 70 76 69 49 40 38 33 32 39 46 52 52 56 70 80 86 97 97
27 31 34 37 43 44 50 57 55 45 38 32 26 27 28 36 64 62 49 49 63 85 88 83 85 98 100 97 72 55 47 38 35 53 65 62 64 68 74 77 89 97 98 97
37 38 42 42 44 53 55 58 58 50 48 49 45 33 41 71 85 93 96 95 93 87 85 87 90 93 99 94 71 53 50 53 71 77 74 73 74 73 72 93 97 98 97 98
Wind_Speed
17 18 22 24 25 26 29 29 26 32 34 19 22 18 19 21 20 17 24 23 27 30 31 32 38 41 37 33 30 27 25 24 23 23 21 20 19 19 19 20 22 23 23 24
25 21 18 24 22 24 24 28 32 27 28 15 19 21 17 17 21 24 26 26 27 30 32 35 41 42 39 34 29 27 26 24 23 23 24 23 23 23 24 23 23 23 22 22
11 15 17 22 20 23 27 20 21 22 20 18 18 11 19 27 33 30 25 26 28 31 34 39 43 42 36 35 31 26 25 25 25 25 26 26 26 27 27 26 26 26 25 25
15 17 3 12 11 12 20 30 20 22 17 19 12 18 27 36 42 33 25 26 28 33 39 42 40 37 36 37 34 30 28 27 27 26 26 26 26 27 27 27 27 26 26 25
8 8 20 25 22 23 20 22 25 22 16 13 20 31 35 44 38 33 31 33 36 40 40 39 41 40 38 34 33 31 30 30 30 29 29 29 29 28 28 27 27 27 26 27
12 7 6 6 18 24 24 26 18 14 18 23 31 37 44 37 34 36 38 41 40 39 43 46 47 45 39 32 32 30 31 32 33 33 33 32 32 32 33 33 33 33 33 33
30 13 15 23 23 24 13 14 16 21 24 31 41 43 46 44 36 40 41 43 45 45 45 45 44 43 37 32 32 32 33 34 35 37 37 37 37 38 37 36 34 32 29 26
21 13 15 12 15 18 22 26 31 32 35 38 42 45 44 40 41 42 41 39 40 42 40 40 41 42 40 34 34 35 35 36 38 40 40 38 38 37 37 36 32 31 31 31
23 23 24 29 31 33 35 35 36 37 43 46 44 43 45 46 39 34 36 38 38 38 37 36 37 36 34 34 37 39 38 39 40 41 40 40 41 37 36 36 38 39 40 43
37 44 39 35 36 32 37 39 42 42 43 45 46 45 43 37 38 39 37 34 33 33 34 34 33 34 32 34 38 38 38 39 42 45 43 38 36 39 40 41 41 43 43 46
49 47 43 43 40 37 41 43 43 44 44 42 41 36 38 37 35 33 34 33 33 36 36 34 30 27 26 29 34 34 35 36 37 40 43 44 42 40 43 44 44 46 49 53
57 42 40 42 40 38 41 44 45 46 42 37 36 38 36 34 35 35 34 32 32 32 30 26 24 24 25 29 33 36 38 39 41 41 42 44 47 49 49 51 51 52 53 53
41 30 29 41 43 41 41 43 37 34 36 38 36 34 34 33 30 29 28 27 27 26 25 22 25 29 31 33 36 39 41 43 46 47 48 49 49 50 52 50 52 52 51 49
37 41 46 43 44 44 37 33 36 33 31 33 34 33 33 31 29 27 25 24 25 28 30 31 33 36 35 37 40 43 45 47 51 52 54 55 57 57 57 58 58 57 53 48
37 35 32 35 35 32 37 35 28 30 31 30 30 30 27 27 28 28 24 26 29 32 33 35 39 39 36 40 43 45 47 48 49 50 51 51 52 51 50 49 47 45 44 40
27 28 28 31 36 30 23 24 24 23 22 20 22 24 26 29 32 35 38 36 36 39 40 42 40 36 39 41 43 45 47 47 46 46 46 45 46 45 42 40 40 38 38 38
31 30 26 24 21 19 19 20 24 28 31 34 36 37 37 37 37 38 39 38 39 40 40 40 40 40 41 42 43 44 44 43 41 40 39 39 37 36 35 35 35 35 37 37
16 16 15 14 18 24 27 31 36 36 37 37 39 40 40 41 43 44 45 46 46 46 44 42 42 42 42 41 39 38 37 37 37 36 35 36 35 34 34 34 34 36 38 40
12 21 28 30 30 32 35 38 38 38 40 40 42 42 41 42 45 46 47 48 49 50 47 44 42 43 41 39 38 38 38 37 36 35 35 34 35 34 34 35 37 40 41 42
31 32 31 32 31 32 36 39 39 40 43 44 43 45 46 45 44 45 45 46 46 45 42 41 40 42 42 41 38 39 40 39 38 38 38 40 40 40 41 41 41 43 43 43
33 35 36 35 35 36 37 38 41 43 44 45 46 45 45 45 44 47 50 50 43 38 41 40 40 41 42 42 42 42 41 39 40 42 43 44 44 43 43 41 42 44 44 45
41 42 42 41 40 41 41 44 45 43 43 44 44 43 42 42 43 42 42 43 42 40 41 41 41 40 40 41 42 43 41 40 41 42 42 42 42 42 43 43 44 45 45 42
42 42 42 42 44 47 48 43 40 40 41 39 40 41 41 41 42 43 43 38 39 39 40 40 39 39 39 40 41 42 42 43 42 43 44 44 44 45 44 43 43 42 41 39
42 43 45 47 47 44 41 40 39 39 40 41 39 39 40 42 43 42 43 43 40 38 41 40 38 38 39 41 41 41 43 44 44 44 44 42 43 42 41 41 39 37 35 33
47 47 45 42 40 40 40 41 43 43 42 41 43 41 43 45 48 45 44 44 42 44 41 38 40 43 44 44 42 41 43 41 42 42 40 40 38 38 36 34 33 31 31 30
43 42 41 37 37 38 40 41 41 40 39 42 41 43 46 45 45 44 41 39 40 40 41 41 40 39 41 43 42 41 39 38 38 37 36 34 33 32 31 31 28 28 26 22
38 35 36 37 36 38 39 42 44 42 42 45 47 46 43 42 40 36 36 38 39 39 39 37 35 34 34 34 33 34 33 33 33 33 32 30 30 29 29 25 26 24 21 16
Wind_Direction
280 278 275 276 273 268 261 265 255 289 293 328 321 308 308 307 302 303 311 301 296 288 290 299 317 324 325 322 321 320 318 316 315 315 314 314 313 313 313 312 311 311 312 311
293 292 282 281 274 265 265 268 271 283 290 323 311 311 315 330 325 319 313 306 300 291 292 300 311 316 319 319 314 310 308 306 307 309 311 312 313 313 311 309 306 305 305 306
283 286 292 291 290 268 252 281 282 274 306 304 303 298 314 320 324 320 308 301 298 296 299 305 309 314 315 317 313 307 302 300 300 301 303 305 307 306 306 306 307 308 308 308
273 287 263 282 280 246 267 292 279 288 290 291 282 296 315 312 315 315 309 304 303 303 301 301 306 310 313 314 310 305 301 300 300 302 302 301 302 303 303 305 307 306 305 304
255 237 280 279 278 272 270 275 288 287 269 254 280 294 303 307 309 306 308 310 309 312 309 309 312 312 314 308 301 298 298 299 299 299 300 300 300 299 298 299 300 301 302 302
237 244 238 248 288 286 287 283 278 250 254 268 284 288 300 303 303 305 304 308 309 308 305 306 310 312 315 306 295 292 294 295 295 297 299 298 298 297 297 297 298 299 300 300
235 246 260 283 281 282 263 280 250 252 264 279 295 297 303 305 296 300 302 302 302 301 299 301 305 308 311 306 295 291 288 288 290 293 293 293 295 297 298 298 295 291 288 285
218 224 265 274 252 261 287 285 283 277 281 288 293 296 297 296 297 298 298 296 295 295 298 302 303 304 306 304 297 294 291 290 288 288 287 288 288 291 292 289 283 281 281 285
243 266 273 282 284 293 288 283 283 281 286 293 294 293 296 301 301 301 300 298 295 295 299 299 301 304 306 304 301 299 297 294 290 287 286 286 290 289 285 282 282 284 288 289
269 276 276 277 277 280 284 283 285 287 287 290 290 294 296 294 298 298 296 295 294 294 295 299 302 305 306 305 300 301 302 301 296 292 287 286 286 285 283 283 286 288 290 293
268 274 278 277 281 279 279 280 281 286 291 294 297 297 298 298 296 294 294 295 294 296 297 297 295 296 298 297 299 306 306 304 304 302 299 293 282 280 282 286 291 292 294 294
277 281 277 277 277 277 277 280 285 292 292 293 294 297 296 295 295 295 297 300 301 302 302 303 302 303 305 306 310 309 307 307 306 306 304 300 298 296 290 288 289 291 294 297
284 281 268 284 283 282 279 284 288 292 293 293 292 293 293 295 295 296 298 298 297 297 298 300 309 314 316 307 305 303 300 299 296 295 292 289 288 288 287 286 287 288 292 296
276 273 278 281 278 280 282 288 293 288 287 292 295 299 298 293 289 290 294 297 299 301 302 303 304 311 313 303 299 296 294 293 291 290 290 290 290 292 292 293 292 292 295 298
273 275 274 276 278 278 288 290 287 294 299 301 301 296 287 284 283 286 295 302 300 302 304 305 309 313 305 300 297 295 295 295 295 295 296 298 298 298 298 297 297 299 297 294
266 266 266 275 286 287 286 298 305 310 314 319 321 314 303 298 300 304 309 304 295 300 304 308 307 302 297 298 299 298 298 299 300 301 301 300 300 300 297 295 293 293 293 295
279 280 275 273 279 290 300 320 324 324 323 322 320 316 310 303 298 299 300 292 286 289 291 292 294 293 292 296 299 300 300 303 305 305 306 305 304 301 299 296 296 294 296 299
253 259 269 294 317 319 317 321 324 322 317 312 311 308 304 297 294 293 292 291 290 289 289 291 292 291 291 295 298 303 307 309 309 308 308 308 306 304 302 300 300 300 301 301
286 327 330 330 325 320 320 320 318 314 311 310 308 304 300 296 295 295 295 294 293 293 294 292 290 287 290 295 298 303 307 310 309 310 311 310 310 309 308 306 305 305 305 305
325 321 320 320 317 314 314 313 308 306 307 308 305 302 300 299 297 296 295 295 297 300 299 295 288 287 289 291 295 300 304 307 306 306 307 307 307 307 306 306 306 307 306 305
307 312 316 316 313 310 307 306 304 304 306 306 303 300 299 298 301 301 299 295 297 299 297 295 290 287 287 290 294 297 300 300 299 299 300 302 304 304 303 302 304 308 307 308
309 312 313 312 310 308 307 306 305 303 300 299 300 300 298 297 298 300 302 302 300 295 293 291 292 289 287 289 292 296 298 298 298 300 301 302 304 305 306 304 304 306 308 308
304 307 307 305 304 306 306 304 302 300 300 300 299 300 300 300 300 300 299 300 300 302 301 299 294 289 288 289 291 294 295 296 298 300 301 300 301 303 304 305 305 307 308 309
300 301 300 302 304 303 301 304 302 299 297 296 300 302 301 300 296 296 295 296 295 296 296 294 291 287 286 288 291 295 296 298 300 301 301 301 301 303 303 305 308 309 310 309
303 304 304 302 298 301 302 302 299 297 299 296 297 299 303 303 301 300 296 296 295 297 297 293 288 285 285 287 289 290 293 298 300 301 301 301 302 304 306 308 309 309 311 314
303 302 304 303 303 304 304 305 305 304 301 298 297 305 307 304 305 305 300 299 299 300 300 299 293 289 286 282 287 292 296 297 300 302 302 303 304 307 308 309 308 311 314 314
303 302 304 305 306 307 307 309 309 307 306 305 304 305 303 304 306 304 303 303 303 303 303 302 298 296 294 292 291 293 294 297 300 301 302 304 306 308 309 308 310 313 314 309